Weather History for Richmond Hanover County, VA

Change the Weather History Date:

Wednesday, May 15, 2013

  Actual Average Record
Temperature  
Mean Temperature 72 °F -  
Max Temperature 87 °F 74 °F 92 °F (1956)
Min Temperature 57 °F 52 °F 35 °F (1984)
Cooling Degree Days 7    
Growing Degree Days 22 (Base 50)    
Moisture  
Dew Point 52 °F    
Average Humidity 49    
Maximum Humidity 61    
Minimum Humidity 37    
Precipitation  
Precipitation 0.00 in - - ()
Sea Level Pressure  
Sea Level Pressure 29.91 in    
Wind  
Wind Speed 9 mph (SSW)    
Max Wind Speed 16 mph    
Max Gust Speed 25 mph    
Visibility 10 miles    
Events      
Averages and records for this station are not official NWS values.
T = Trace of Precipitation, MM = Missing Value Source: NWS Daily Summary

Daily Weather History Graph

Daily Weather History Graph

Search for Another Location

Airport:

Trip Planner

Search our weather history database for the weather conditions in past years. The results will help you decide how hot, cold, wet, or windy it might be!

Date:

Astronomy

May. 15, 2013 Rise Set
Actual Time 5:59 AM EDT 8:12 PM EDT
Civil Twilight 5:30 AM EDT 8:42 PM EDT
Nautical Twilight 4:54 AM EDT 9:18 PM EDT
Astronomical Twilight 4:15 AM EDT 9:57 PM EDT
Moon 10:32 AM EDT (5/15) No Moon Set
Length of Visible Light 15h 11m
Length of Day
14h 12m
Waxing Crescent, 26% of the Moon is Illuminated
May 15
Waxing Crescent
May 18
First Quarter
May 25
Full
May 31
Last Quarter
Jun 8
New

Hourly Weather History & Observations

Time (EDT) Temp. Heat Index Dew Point Humidity Pressure Visibility Wind Dir Wind Speed Gust Speed Precip Events Conditions
12:54 AM 60.1 °F - 39.9 °F 47% 30.06 in 10.0 mi SSE 3.5 mph - N/A   Overcast
1:54 AM 62.1 °F - 37.9 °F 41% 30.03 in 10.0 mi South 8.1 mph - N/A   Overcast
2:54 AM 61.0 °F - 39.0 °F 44% 30.01 in 10.0 mi Variable 5.8 mph - N/A   Overcast
3:54 AM 59.0 °F - 39.9 °F 49% 30.00 in 10.0 mi South 8.1 mph - N/A   Clear
4:54 AM 59.0 °F - 41.0 °F 51% 29.99 in 10.0 mi SSW 9.2 mph - N/A   Clear
5:54 AM 57.0 °F - 42.1 °F 57% 29.99 in 10.0 mi South 8.1 mph - N/A   Clear
6:54 AM 57.0 °F - 43.0 °F 59% 29.99 in 10.0 mi South 9.2 mph - N/A   Clear
7:54 AM 61.0 °F - 45.0 °F 56% 29.99 in 10.0 mi SSW 8.1 mph - N/A   Clear
8:54 AM 63.0 °F - 46.9 °F 56% 29.97 in 10.0 mi SSW 10.4 mph - N/A   Scattered Clouds
9:54 AM 64.9 °F - 51.1 °F 61% 29.97 in 10.0 mi SSW 6.9 mph - 0.00 in   Scattered Clouds
10:54 AM 72.0 °F - 53.1 °F 51% 29.96 in 10.0 mi SSW 8.1 mph - N/A   Clear
11:54 AM 77.0 °F - 55.9 °F 48% 29.94 in 10.0 mi SW 12.7 mph - N/A   Clear
12:54 PM 81.0 °F 81.1 °F 57.9 °F 45% 29.92 in 10.0 mi SSW 15.0 mph 20.7 mph N/A   Clear
1:54 PM 82.9 °F 82.8 °F 59.0 °F 44% 29.89 in 10.0 mi SSW 12.7 mph 20.7 mph N/A   Clear
2:54 PM 86.0 °F 85.7 °F 60.1 °F 41% 29.86 in 10.0 mi SSW 16.1 mph 21.9 mph N/A   Clear
3:54 PM 86.0 °F 85.4 °F 59.0 °F 40% 29.83 in 10.0 mi SW 15.0 mph 24.2 mph N/A   Clear
4:54 PM 87.1 °F 86.1 °F 57.9 °F 37% 29.80 in 10.0 mi South 12.7 mph 23.0 mph N/A   Clear
5:54 PM 86.0 °F 85.4 °F 59.0 °F 40% 29.79 in 10.0 mi SSW 13.8 mph 25.3 mph N/A   Clear
6:54 PM 84.9 °F 84.4 °F 59.0 °F 41% 29.78 in 10.0 mi SSW 16.1 mph 23.0 mph N/A   Clear
7:54 PM 82.9 °F 83.2 °F 60.1 °F 46% 29.78 in 10.0 mi SSW 10.4 mph - N/A   Clear
8:54 PM 81.0 °F 81.6 °F 60.1 °F 49% 29.79 in 10.0 mi SSW 12.7 mph 19.6 mph N/A   Clear
9:54 PM 81.0 °F 81.6 °F 60.1 °F 49% 29.81 in 10.0 mi SSW 10.4 mph 19.6 mph N/A   Clear
10:54 PM 79.0 °F - 61.0 °F 54% 29.82 in 9.0 mi SW 10.4 mph - N/A   Clear
11:54 PM 77.0 °F - 61.0 °F 58% 29.83 in 9.0 mi SW 8.1 mph - N/A   Clear